Flag for U.S.A. Weather past 2 weeks in Chula Vista, California, U.S.A.

50 °F

Passing clouds.

Feels Like: 47 °F
Forecast: 48 / 60 °F
Wind: 7 mph from Southeast

Location: Brown Field Municipal Airport

Current Time: Nov 27, 2015 at 4:18:07 AM

Latest Report: Nov 27, 2015 at 3:53 AM

Visibility: 10 mi

Pressure: 29.98 "Hg

Humidity: 89%

Dew point: 47 °F

Location of Chula VistaLocation

Historic Weather in Chula Vista — Graph


Chula Vista temperature yesterday

Maximum temperature yesterday: 62 °F (at 12:53 PM)
Minimum temperature yesterday: 50 °F (at 1:53 AM)
Average temperature yesterday: 54 °F

Past Weeks' High & Low Weather Summary

High93 °F (Nov 14, 10:53 AM)93% (Nov 25, 4:53 AM)30.18 "Hg (Nov 25, 4:53 AM)
Low42 °F (Nov 17, 3:53 AM)6% (Nov 14, 10:53 AM)29.86 "Hg (Nov 22, 2:53 PM)
Average63 °F43%29.96 "Hg
* Reported Nov 12 2:53 AM — Nov 27 2:53 AM, Chula Vista, Weather by CustomWeather, © 2015

Note: Actual official high and low records may vary slightly from our data, if they occured in-between our weather recording intervals... More about our weather records


Chula Vista weather history for previous 24 hours

Time TempWeatherWind HumidityBarometerVisibility
2:53 AM
Fri, Nov 27
50 °FPartly cloudy.8 mph86%29.98 "Hg10 mi
1:53 AM50 °FLight rain. Overcast.9 mph89%29.98 "Hg10 mi
12:53 AM51 °FLight rain. Passing clouds.7 mph86%29.99 "Hg10 mi
11:53 PM
Thu, Nov 26
51 °FOvercast.7 mph86%30.01 "Hg10 mi
10:53 PM51 °FLight rain. Mostly cloudy.10 mph83%30.02 "Hg10 mi
9:53 PM52 °FOvercast.7 mph77%30.01 "Hg10 mi
8:53 PM52 °FPassing clouds.8 mph80%30.02 "Hg10 mi
7:53 PM53 °FOvercast.9 mph74%30.01 "Hg10 mi
6:53 PM53 °FMostly cloudy.5 mph74%30.00 "Hg10 mi
5:53 PM53 °FPassing clouds.6 mph72%29.99 "Hg10 mi
4:53 PM55 °FOvercast.3 mph64%29.99 "Hg10 mi
3:53 PM57 °FScattered clouds.7 mph49%29.99 "Hg10 mi
2:53 PM59 °FMore clouds than sun.10 mph54%29.98 "Hg10 mi
1:53 PM62 °FBroken clouds.9 mph46%29.97 "Hg10 mi
12:53 PM62 °FBroken clouds.8 mph41%29.98 "Hg10 mi
11:53 AM59 °FBroken clouds.3 mph56%30.00 "Hg10 mi
10:53 AM57 °FOvercast.No wind62%30.03 "Hg10 mi
9:53 AM56 °FPartly sunny.No wind67%30.04 "Hg10 mi
8:53 AM55 °FLight rain. Overcast.6 mph69%30.03 "Hg10 mi
7:53 AM54 °FScattered clouds.7 mph72%30.01 "Hg10 mi
6:53 AM51 °FOvercast.5 mph77%30.00 "Hg10 mi
5:53 AM53 °FLight rain. Mostly cloudy.8 mph69%29.99 "Hg10 mi
4:53 AM52 °FMostly cloudy.6 mph72%29.98 "Hg10 mi
Weather by CustomWeather, © 2015

See weather overviewHow to use our weather pages